Location: M?digepalle
(16.1753°N, 80.3496°E)
Time: 07:14:48
(UTC+00:00)

CSL-04 Rocket - Pass Details

Date: 29 October 2020
Orbit: 805 x 861 km, 98.9° (Epoch: 28 November)

Event Time Altitude Azimuth Distance (km) Brightness Sun altitude
Rises 13:20:37 0° 146° (SE) 3,423 6.6 -17.5°
Reaches altitude 10° 13:23:12 10° 137° (SE) 2,490 5.8 -18.1°
Enters shadow 13:23:33 12° 135° (SE) 2,372 5.7 -18.2°
Exits shadow 13:29:13 31° 51° (NE) 1,476 4.5 -19.5°
Drops below altitude 10° 13:33:00 10° 12° (NNE) 2,486 5.9 -20.4°
Sets 13:35:34 0° 3° (N) 3,418 6.7 -21.1°
